Weather in Stepnoye Ozero

Russia / Republic of Tatarstan     54°29′00″N   50°33′44″E
temp.,
°C
wind,
m/s
gust,
m/s
humid.,
%
clouds,
%
prec.,
mm/h
press.,
hPa
HPBL,
m
26 july, mon
mon2600:00+15nw115180 0.0 102111
03:00+12nw22675 0.0 102212
06:00+16wnw235580 0.0 1022124
09:00+21wnw243963 0.0 10221071
12:00+23wnw243359 0.0 10222513
15:00+21wnw354155 0.0 1021795
18:00+20wnw3750100 0.0 1021230
21:00+16wnw33556 0.0 102140
27 july, tue
tue2700:00+14wsw336472 0.0 102042
03:00+14wsw3370100 0.0 102040
06:00+17wsw486293 0.0 1020260
09:00+21w475215 0.0 1019576
12:00+24w584127 0.0 10172076
15:00+22wnw355511 0.4 1016809
18:00+20nnw49690 0.3 1016584
21:00+15nw11831 0.3 101711
28 july, wed
wed2800:00+14w228918 0.0 101711
03:00+12nnw22873 0.0 101714
06:00+14n24765 0.0 1018155
09:00+20nne234619 0.0 10181263
12:00+23nw34331 0.0 10172023
15:00+24nw56290 0.0 10162141
18:00+22nnw23477 0.0 1015129
21:00+17ssw226227 0.0 101511
29 july, thu
thu2900:00+15sw3378100 0.1 101431
03:00+16ssw397296 0.1 1013185
06:00+17sw497763 0.1 1012245
09:00+21sw5760100 0.3 1010452
12:00+22sw61159100 0.1 10091449
15:00+19sw61482100 1.8 1008989
18:00+18sw3109198 1.2 1006347
21:00+18sw4119535 1.7 1005228
30 july, fri
fri3000:00+17wsw389345 0.0 1004141
03:00+16wsw412965 0.2 1005239
06:00+18w499120 0.0 1005485
09:00+20wnw578498 0.0 1007687
12:00+24wnw566492 0.0 10081015
15:00+27wnw5647100 0.0 10071264
18:00+26wsw235871 0.0 1007122
21:00+21ssw22705 0.0 100713